[[{"header":{"parameterUnit":"m.s-1","parameterCategory":2,"la1":30.2991,"la2":30.254,"lo1":-89.0895,"lo2":-89.0444,"dy":0.0017,"dx":0.0017,"nx":28,"ny":28,"refTime":"2024-03-13T09:00:00:Z","depth":"0","parameterNumber":2,"parameterNumberName":"U-component_of_CURRENTS"},"data":[0,0,0,0,0,0,0,0,0,0,0,0,0,0,0,0,0,0,0,0,0,0,0,0,0,0,0,0,0,0,0,0,0,0,0,0,0,0,0,0,0,0,0,0,0,0,0,0,0,0,0,0,0,0,0,0,0,0,0.1578,0.1578,0,0.1562,0.1562,0.1562,0.1557,0.1557,0.1557,0.1557,0.1641,0.1643,0.1645,0,0,0,0,0,0,0,0,0,0,0,0,0,0.1672,0.167,0.1578,0.1578,0.1577,0.1562,0.1562,0.1562,0.1557,0.1557,0.1557,0.1557,0.164,0.1643,0.1646,0,0,0,0,0,0,0,0,0,0,0,0,0,0.1641,0.1669,0.1578,0.1573,0.1572,0.1562,0.1562,0.1562,0.1557,0.1557,0.1557,0.1557,0.164,0.1643,0.1646,0.1666,0,0,0.1656,0.1658,0,0,0,0,0,0,0,0,0.1643,0.1638,0.1574,0.1573,0.1572,0.1561,0.1626,0.1601,0.1557,0.1563,0.1557,0.1557,0.1623,0.1628,0.1624,0.167,0.1673,0.1656,0.1658,0.166,0.1661,0,0,0,0,0,0,0,0.1645,0.1639,0.1572,0.1573,0.1573,0.1595,0.159,0.1621,0.1596,0.1563,0.1562,0.156,0.1624,0.1621,0.1626,0.1675,0.1656,0.1659,0.1661,0.1663,0.1761,0.1762,0,0,0,0,0,0,0.1642,0.164,0.1573,0.1572,0.1608,0.1593,0.1587,0.1565,0.1593,0.1596,0.156,0.156,0.1615,0.1623,0.163,0.1678,0.166,0.1663,0.1665,0.1761,0.1762,0.1762,0,0,0,0,0,0,0.1643,0.1635,0.1573,0.1607,0.16,0.159,0.1566,0.1565,0.1559,0.1589,0.1595,0.1555,0.1616,0.1625,0.1647,0.1681,0.1664,0.1667,0.176,0.1761,0.1762,0.1761,0,0,0,0,0,0,0.1646,0.1635,0.1626,0.1606,0.1598,0.157,0.1566,0.1564,0.1558,0.1557,0.1588,0.1595,0.1616,0.1642,0.165,0.1685,0.167,0.1759,0.176,0.1762,0.176,0.1762,0.1763,0,0,0,0,0,0.1649,0.1644,0.1625,0.1618,0.1583,0.157,0.1568,0.1563,0.1557,0.1557,0.1569,0.1594,0.1657,0.1644,0.1654,0.1691,0.1759,0.176,0.1761,0.1759,0.1761,0.1763,0,0,0,0,0,0,0.1691,0.1642,0.1622,0.1603,0.1585,0.1569,0.1574,0.156,0.1566,0.1572,0.1592,0.1601,0.1636,0.1657,0.1643,0.1722,0.1717,0.172,0.1712,0.1714,0.1715,0.1821,0.1673,0,0,0,0,0,0.169,0.1668,0.1629,0.1618,0.1606,0.1586,0.1582,0.1572,0.1571,0.1573,0.1588,0.1617,0.165,0.1674,0.17,0.174,0.1791,0.1773,0.1775,0.1776,0.1868,0.1943,0.1961,0.1767,0.1767,0.1767,0,0,0.1707,0.1676,0.1666,0.1625,0.1611,0.164,0.1584,0.1578,0.1618,0.1585,0.1638,0.1618,0.1657,0.1698,0.1718,0.1722,0.1839,0.1777,0.1778,0.1873,0.1947,0.1967,0.1984,0.1768,0.1768,0.1768,0,0,0.176,0.1696,0.1712,0.1701,0.1677,0.1668,0.1664,0.1639,0.1639,0.1659,0.1655,0.1668,0.1697,0.1747,0.1776,0.1811,0.1836,0.1787,0.1896,0.1964,0.1982,0.1999,0.2009,0.2028,0.1797,0.1797,0.1797,0,0.1802,0.1791,0.172,0.1749,0.1757,0.1689,0.1736,0.1736,0.1725,0.1738,0.1686,0.1746,0.1752,0.1855,0.1858,0.1826,0.1838,0.1877,0.1969,0.1988,0.2005,0.2013,0.2033,0.1798,0.1798,0.1798,0.1798,0,0.1876,0.1874,0.1883,0.1898,0.1901,0.191,0.19,0.1902,0.187,0.1868,0.1905,0.1889,0.194,0.1914,0.1904,0.2024,0.1977,0.1949,0.1969,0.2026,0.2027,0.2049,0.1798,0.1798,0.1798,0.1798,0,0,0.197,0.1943,0.1954,0.1963,0.1968,0.1972,0.2041,0.2068,0.2103,0.2081,0.2141,0.217,0.2127,0.2163,0.2122,0.2182,0.2258,0.2123,0.2126,0.2145,0.2365,0.2167,0.217,0.2224,0.223,0.2234,0.2287,0,0.2059,0.2116,0.2095,0.2168,0.2184,0.2157,0.2221,0.2241,0.2221,0.2253,0.2254,0.2279,0.2232,0.2215,0.2283,0.2266,0.2328,0.2246,0.2306,0.2309,0.2135,0.2195,0.2011,0.2032,0.2308,0.2312,0.2314,0,0.2154,0.2164,0.2238,0.2251,0.2261,0.231,0.2354,0.2398,0.2441,0.2422,0.2467,0.2435,0.2533,0.2448,0.2555,0.249,0.2472,0.2452,0.2452,0.2317,0.2155,0.2037,0.206,0.1965,0.2347,0.2345,0.2342,0,0.2219,0.2267,0.2311,0.2323,0.2347,0.2383,0.2406,0.2448,0.2477,0.2529,0.2534,0.2625,0.2631,0.269,0.2636,0.2605,0.271,0.2653,0.2474,0.2455,0.2352,0.2315,0.232,0.2778,0.2778,0.2778,0.2778,0,0.2305,0.2345,0.2332,0.2355,0.2412,0.242,0.2485,0.2513,0.2563,0.2601,0.262,0.2649,0.2693,0.2716,0.2705,0.2642,0.2773,0.2549,0.2488,0.2328,0.2291,0.2244,0.2215,0.278,0.2779,0.2779,0.2779,0,0.2377,0.2373,0.241,0.2427,0.2435,0.2474,0.2517,0.2556,0.2593,0.2646,0.2667,0.2699,0.2695,0.2699,0.2741,0.2677,0.2548,0.2604,0.2374,0.2285,0.1996,0.1972,0.191,0.1883,0.2445,0.2441,0.2437,0,0.2423,0.2438,0.2447,0.2463,0.247,0.2512,0.2538,0.2574,0.2603,0.2656,0.2681,0.2682,0.2637,0.2599,0.2488,0.2424,0.2385,0.2215,0.2153,0.2002,0.1934,0.186,0.1842,0.1989,0.1982,0.1977,0.1972,0,0.2494,0.2482,0.25,0.2507,0.2527,0.2546,0.2575,0.2596,0.2627,0.2643,0.2623,0.2588,0.2474,0.2281,0.2156,0.2102,0.2048,0.2092,0.204,0.1691,0.152,0.1452,0.1896,0.1922,0.1927,0.1931,0.1934,0.1936,0.2539,0.2544,0.2534,0.2538,0.2554,0.2537,0.2509,0.2522,0.2517,0.2455,0.2517,0.2348,0.2127,0.1886,0.1829,0.1544,0.1654,0.1452,0.1468,0.1432,0.1321,0.1614,0.1491,0.1493,0.1495,0.1497,0.1499,0,0.2562,0.2547,0.256,0.2526,0.2498,0.2511,0.2492,0.2416,0.2328,0.2267,0.2198,0.1856,0.1609,0.1415,0.1093,0.0961,0.0957,0.0913,0.0835,0.0881,0.1229,0.1121,0.0783,0.0783,0.0783,0.0783,0.0784,0.0784,0.2576,0.256,0.2527,0.245,0.2418,0.2312,0.2257,0.2155,0.206,0.1784,0.1532,0.1409,0.1148,0.0797,0.0544,0.0525,0.0516,0.0375,0.0512,0.0781,0.0835,0.0886,0.078,0.0375,0.0375,0.0097,0.0095,0.0093]},{"header":{"parameterUnit":"m.s-1","parameterCategory":2,"la1":30.2991,"la2":30.254,"lo1":-89.0895,"lo2":-89.0444,"dy":0.0017,"dx":0.0017,"nx":28,"ny":28,"refTime":"2024-03-13T09:00:00:Z","depth":"0","parameterNumber":3,"parameterNumberName":"V-component_of_CURRENTS"},"data":[0,0,0,0,0,0,0,0,0,0,0,0,0,0,0,0,0,0,0,0,0,0,0,0,0,0,0,0,0,0,0,0,0,0,0,0,0,0,0,0,0,0,0,0,0,0,0,0,0,0,0,0,0,0,0,0,0,0,0.052,0.0521,0,0.0541,0.0541,0.0541,0.0542,0.0542,0.0542,0.0542,0.0562,0.0562,0.0563,0,0,0,0,0,0,0,0,0,0,0,0,0,0.0473,0.0474,0.052,0.0521,0.0521,0.0541,0.0541,0.0541,0.0542,0.0542,0.0542,0.0542,0.0562,0.0562,0.0563,0,0,0,0,0,0,0,0,0,0,0,0,0,0.0493,0.0474,0.052,0.0524,0.0525,0.0541,0.0541,0.0541,0.0543,0.0542,0.0542,0.0542,0.0561,0.0562,0.0563,0.0576,0,0,0.0567,0.0567,0,0,0,0,0,0,0,0,0.0492,0.0495,0.0523,0.0524,0.0525,0.0539,0.0532,0.0553,0.0543,0.0535,0.0542,0.0542,0.0555,0.0556,0.056,0.0576,0.0577,0.0567,0.0567,0.0568,0.0568,0,0,0,0,0,0,0,0.049,0.0494,0.0528,0.0524,0.0525,0.0522,0.0524,0.0536,0.0546,0.0536,0.0536,0.0539,0.0555,0.0559,0.0561,0.0578,0.0567,0.0568,0.0568,0.0569,0.0622,0.0622,0,0,0,0,0,0,0.049,0.0493,0.0527,0.0529,0.0508,0.0523,0.0526,0.0534,0.0546,0.0547,0.054,0.0539,0.0557,0.0559,0.0561,0.0599,0.0568,0.0569,0.0569,0.0621,0.0622,0.0623,0,0,0,0,0,0,0.0489,0.0493,0.0527,0.0511,0.0515,0.0524,0.0534,0.0535,0.054,0.0549,0.055,0.0543,0.0557,0.056,0.0579,0.0598,0.0569,0.057,0.062,0.0621,0.0622,0.0659,0,0,0,0,0,0,0.0488,0.0493,0.0498,0.0511,0.0516,0.054,0.0534,0.0536,0.0543,0.0542,0.0553,0.0554,0.0557,0.0578,0.058,0.0599,0.0571,0.0619,0.062,0.0622,0.0657,0.0661,0.0665,0,0,0,0,0,0.0486,0.0497,0.0498,0.0502,0.0523,0.0541,0.0543,0.0548,0.0543,0.055,0.0559,0.0554,0.0588,0.0579,0.0582,0.0602,0.0618,0.062,0.0622,0.0655,0.066,0.0665,0,0,0,0,0,0,0.0474,0.0498,0.05,0.0516,0.0529,0.0541,0.0549,0.0549,0.0561,0.0562,0.0565,0.0568,0.0592,0.0591,0.058,0.0621,0.0602,0.0604,0.0626,0.0631,0.0636,0.0677,0.0572,0,0,0,0,0,0.0475,0.0495,0.0509,0.0523,0.0529,0.0538,0.0545,0.055,0.0562,0.0566,0.0574,0.0585,0.0602,0.0611,0.0623,0.0645,0.0648,0.0659,0.0663,0.0667,0.0702,0.0718,0.0727,0.0628,0.0628,0.0628,0,0,0.0474,0.0491,0.0501,0.0523,0.0533,0.0566,0.0542,0.0557,0.0589,0.0568,0.0607,0.06,0.0611,0.0638,0.0649,0.064,0.0689,0.0669,0.0672,0.0707,0.0721,0.0731,0.0739,0.0629,0.0629,0.0629,0,0,0.0503,0.0498,0.0534,0.0549,0.057,0.0578,0.0583,0.0598,0.0606,0.0636,0.0631,0.0645,0.0661,0.0682,0.0693,0.0729,0.071,0.0716,0.0774,0.0787,0.0796,0.0804,0.0788,0.0795,0.0718,0.0718,0.0718,0,0.0501,0.0551,0.0544,0.0586,0.0609,0.0589,0.0636,0.0643,0.0663,0.0683,0.0655,0.07,0.0696,0.0752,0.0759,0.0743,0.0732,0.0751,0.0794,0.0802,0.0809,0.0792,0.0799,0.072,0.072,0.072,0.072,0,0.0571,0.0604,0.0623,0.0677,0.0696,0.0725,0.0738,0.0754,0.0751,0.0763,0.08,0.079,0.0824,0.0809,0.0797,0.0848,0.0813,0.0794,0.0783,0.0822,0.08,0.0806,0.0723,0.0722,0.0722,0.0721,0,0,0.0586,0.066,0.0669,0.0706,0.0747,0.0767,0.0819,0.0863,0.0898,0.0898,0.0953,0.0962,0.0943,0.0956,0.0929,0.0935,0.0952,0.0887,0.0887,0.0875,0.0957,0.0917,0.0919,0.093,0.0932,0.0934,0.091,0,0.0646,0.0739,0.0767,0.0847,0.0889,0.0897,0.0947,0.0979,0.0987,0.1026,0.1021,0.105,0.1002,0.1004,0.101,0.098,0.0975,0.096,0.0921,0.092,0.0883,0.0929,0.0948,0.0929,0.0916,0.0917,0.0917,0,0.0714,0.0766,0.0858,0.0932,0.0952,0.0996,0.1061,0.1102,0.1147,0.1154,0.1184,0.1168,0.1201,0.1131,0.1126,0.1112,0.1049,0.1007,0.1005,0.0972,0.0894,0.0894,0.094,0.0954,0.0927,0.0926,0.0925,0,0.0731,0.0829,0.0902,0.0928,0.1008,0.1049,0.1089,0.114,0.1179,0.1231,0.1259,0.1286,0.1295,0.1256,0.1175,0.115,0.1142,0.1096,0.0999,0.0993,0.1012,0.1005,0.1079,0.1086,0.1086,0.1086,0.1086,0,0.0784,0.0839,0.091,0.0946,0.1021,0.107,0.1143,0.1184,0.1251,0.1311,0.1318,0.1364,0.1324,0.1307,0.1223,0.1143,0.1183,0.1037,0.1003,0.1019,0.1013,0.1025,0.1025,0.1085,0.1086,0.1086,0.1086,0,0.0793,0.0846,0.092,0.1004,0.1028,0.1075,0.1163,0.1216,0.1276,0.1356,0.1379,0.1431,0.1419,0.1352,0.1286,0.1201,0.1132,0.107,0.1078,0.1046,0.0969,0.0969,0.1023,0.1045,0.0982,0.0982,0.0981,0,0.0811,0.0849,0.0934,0.0969,0.1008,0.1076,0.1127,0.1211,0.1273,0.1396,0.1444,0.1468,0.1497,0.1397,0.1266,0.1135,0.1111,0.1035,0.1004,0.1,0.0975,0.0984,0.1001,0.1023,0.1023,0.1023,0.1023,0,0.0828,0.0851,0.0904,0.0967,0.1023,0.1092,0.1177,0.1234,0.1346,0.1435,0.1554,0.1596,0.1518,0.1431,0.1243,0.1143,0.1082,0.1022,0.1041,0.105,0.105,0.1042,0.0978,0.1021,0.1021,0.1021,0.1021,0.1021,0.0824,0.085,0.0906,0.0965,0.103,0.1111,0.1175,0.1281,0.14,0.1558,0.1612,0.1675,0.1561,0.1333,0.1226,0.1045,0.1051,0.0986,0.0992,0.1006,0.1033,0.095,0.0937,0.0937,0.0937,0.0937,0.0936,0,0.081,0.0846,0.0902,0.0981,0.1045,0.1088,0.1213,0.1294,0.1441,0.1571,0.169,0.1634,0.1525,0.1355,0.113,0.1046,0.1038,0.1006,0.1057,0.1078,0.1027,0.1034,0.1017,0.1017,0.1017,0.1017,0.1017,0.1017,0.0806,0.0844,0.0874,0.0968,0.1032,0.1131,0.1206,0.134,0.1447,0.1577,0.159,0.1603,0.149,0.1282,0.1142,0.1094,0.1113,0.1073,0.1085,0.1069,0.1069,0.1069,0.1079,0.1071,0.1071,0.1167,0.1167,0.1168]}],[{"header":{"parameterUnit":"m.s-1","parameterCategory":2,"la1":30.2991,"la2":30.254,"lo1":-89.0895,"lo2":-89.0444,"dy":0.0017,"dx":0.0017,"nx":28,"ny":28,"refTime":"2024-03-13T09:00:00:Z","depth":"2","parameterNumber":2,"parameterNumberName":"U-component_of_CURRENTS"},"data":[0,0,0,0,0,0,0,0,0,0,0,0,0,0,0,0,0,0,0,0,0,0,0,0,0,0,0,0,0,0,0,0,0,0,0,0,0,0,0,0,0,0,0,0,0,0,0,0,0,0,0,0,0,0,0,0,0,0,0.1347,0.1347,0,0.1348,0.1348,0.1348,0.135,0.135,0.135,0.135,0.1417,0.1418,0.142,0,0,0,0,0,0,0,0,0,0,0,0,0,0.1394,0.1393,0.1347,0.1347,0.1347,0.1348,0.1348,0.1348,0.135,0.135,0.135,0.135,0.1416,0.1418,0.142,0,0,0,0,0,0,0,0,0,0,0,0,0,0.1382,0.1392,0.1347,0.1348,0.1348,0.1348,0.1348,0.1348,0.135,0.135,0.135,0.135,0.1415,0.1418,0.1421,0.1436,0,0,0.1429,0.143,0,0,0,0,0,0,0,0,0.1383,0.138,0.1348,0.1348,0.1348,0.1348,0.1388,0.138,0.135,0.135,0.135,0.135,0.14,0.1404,0.1403,0.144,0.1442,0.1429,0.1431,0.1432,0.1432,0,0,0,0,0,0,0,0.1383,0.1381,0.1348,0.1348,0.1348,0.1364,0.1362,0.1387,0.1376,0.135,0.135,0.1349,0.14,0.1401,0.1405,0.1443,0.1429,0.1431,0.1433,0.1434,0.151,0.151,0,0,0,0,0,0,0.138,0.1381,0.1348,0.1348,0.1365,0.1363,0.1361,0.1349,0.1374,0.1378,0.1349,0.1349,0.1396,0.1402,0.1408,0.1447,0.1432,0.1434,0.1436,0.1509,0.151,0.151,0,0,0,0,0,0,0.1381,0.1376,0.1348,0.1365,0.1362,0.1362,0.1348,0.1349,0.135,0.1373,0.1378,0.1351,0.1396,0.1404,0.1426,0.1449,0.1435,0.1438,0.1509,0.151,0.151,0.1515,0,0,0,0,0,0,0.1382,0.1376,0.1373,0.1364,0.1361,0.1349,0.1348,0.1349,0.135,0.135,0.1376,0.1382,0.1397,0.1422,0.1428,0.1453,0.144,0.1508,0.1509,0.151,0.1514,0.1516,0.1517,0,0,0,0,0,0.1383,0.138,0.1372,0.1369,0.1354,0.1349,0.135,0.135,0.135,0.1352,0.1365,0.1381,0.1432,0.1424,0.1432,0.1458,0.1508,0.1509,0.151,0.1514,0.1516,0.1517,0,0,0,0,0,0,0.1405,0.138,0.1371,0.1362,0.1355,0.135,0.1355,0.1351,0.1361,0.1366,0.1383,0.139,0.1419,0.1434,0.1424,0.1481,0.1475,0.1478,0.1475,0.1477,0.1479,0.1542,0.1442,0,0,0,0,0,0.1405,0.1393,0.1375,0.137,0.1366,0.1359,0.1359,0.1357,0.1362,0.1366,0.1381,0.1403,0.1429,0.1447,0.1468,0.1499,0.153,0.1521,0.1523,0.1524,0.1581,0.1635,0.1647,0.1514,0.1514,0.1514,0,0,0.1415,0.1398,0.1394,0.1374,0.1369,0.1384,0.136,0.136,0.1383,0.1374,0.1408,0.1407,0.1436,0.1467,0.1483,0.1484,0.1564,0.1525,0.1526,0.1584,0.1638,0.1651,0.1663,0.1514,0.1514,0.1514,0,0,0.144,0.1409,0.1416,0.1408,0.1398,0.1399,0.1399,0.1391,0.1396,0.1416,0.1418,0.1438,0.1466,0.1499,0.1519,0.1545,0.1564,0.1536,0.1606,0.1655,0.1668,0.1679,0.1679,0.169,0.1543,0.1543,0.1543,0,0.1464,0.1453,0.1421,0.1428,0.1432,0.141,0.1433,0.1438,0.144,0.146,0.1432,0.1491,0.1498,0.1569,0.1574,0.1555,0.1568,0.1592,0.166,0.1672,0.1684,0.1681,0.1694,0.1543,0.1543,0.1543,0.1543,0,0.1488,0.1487,0.1489,0.1493,0.1499,0.1504,0.1506,0.1516,0.1514,0.1528,0.1571,0.1569,0.1622,0.1603,0.1603,0.1688,0.1659,0.1647,0.1659,0.1698,0.1691,0.1705,0.1543,0.1543,0.1543,0.1543,0,0,0.1534,0.1514,0.152,0.1522,0.1527,0.1531,0.1576,0.1611,0.1645,0.1649,0.1701,0.1735,0.1738,0.1764,0.1748,0.1787,0.1841,0.1761,0.1763,0.1767,0.1921,0.1775,0.1775,0.1837,0.184,0.1843,0.1861,0,0.1571,0.1595,0.158,0.1615,0.1626,0.1619,0.1658,0.1689,0.1709,0.1747,0.1771,0.1806,0.1798,0.1803,0.1855,0.1854,0.1888,0.1837,0.188,0.1882,0.1754,0.1791,0.1614,0.1607,0.1875,0.1877,0.1878,0,0.1603,0.1614,0.1652,0.1658,0.1663,0.1689,0.174,0.1764,0.1826,0.1841,0.1909,0.1915,0.1999,0.1949,0.2043,0.2009,0.1994,0.1975,0.1975,0.1869,0.1764,0.1623,0.1621,0.1901,0.1899,0.1898,0.1896,0,0.1635,0.1659,0.1689,0.169,0.1707,0.1732,0.1749,0.1806,0.1829,0.1906,0.1941,0.2033,0.2064,0.2109,0.2095,0.2082,0.2148,0.2117,0.1972,0.1958,0.1839,0.1808,0.2189,0.2189,0.2189,0.2188,0.2188,0,0.1657,0.1678,0.1704,0.1708,0.1746,0.1754,0.1798,0.1829,0.1884,0.1919,0.1997,0.2035,0.211,0.2143,0.2134,0.2095,0.2194,0.2015,0.1975,0.1823,0.1793,0.2088,0.2076,0.2189,0.2189,0.2189,0.2189,0,0.1662,0.1682,0.1707,0.1739,0.175,0.1774,0.1802,0.1828,0.1896,0.1946,0.1974,0.2067,0.2105,0.2133,0.2164,0.2119,0.2095,0.2041,0.1828,0.1763,0.1861,0.1849,0.1917,0.1913,0.1909,0.1906,0.1903,0,0.1654,0.1681,0.1716,0.1719,0.1727,0.1759,0.1771,0.1829,0.1839,0.1944,0.195,0.2026,0.2027,0.2024,0.195,0.1899,0.1988,0.1694,0.165,0.189,0.1844,0.1838,0.1832,0.1472,0.1466,0.1461,0.1457,0,0.165,0.1675,0.1673,0.1702,0.1719,0.1742,0.1753,0.1751,0.1805,0.1846,0.187,0.1887,0.1869,0.1729,0.1656,0.1604,0.1695,0.1588,0.1936,0.1551,0.1467,0.1423,0.1432,0.1414,0.1418,0.1421,0.1423,0.1425,0.1633,0.1629,0.1647,0.1663,0.1687,0.1703,0.1674,0.1687,0.1694,0.1674,0.1715,0.166,0.1634,0.1423,0.1329,0.1248,0.1384,0.1315,0.1333,0.1355,0.1284,0.1196,0.1076,0.1079,0.1081,0.1082,0.1084,0,0.1612,0.1609,0.1606,0.16,0.1594,0.1673,0.164,0.1567,0.1519,0.1505,0.1475,0.1268,0.1137,0.1121,0.0912,0.0855,0.0872,0.0817,0.0852,0.0894,0.0932,0.0842,0.0516,0.0515,0.0513,0.0512,0,0,0.1599,0.1567,0.1559,0.1528,0.1535,0.1511,0.1489,0.1403,0.1331,0.1195,0.1117,0.1126,0.1104,0.0835,0.0752,0.061,0.0761,0.0564,0.1018,0.1105,0.1142,0.1208,0.1114,0,0,0,0,0]},{"header":{"parameterUnit":"m.s-1","parameterCategory":2,"la1":30.2991,"la2":30.254,"lo1":-89.0895,"lo2":-89.0444,"dy":0.0017,"dx":0.0017,"nx":28,"ny":28,"refTime":"2024-03-13T09:00:00:Z","depth":"2","parameterNumber":3,"parameterNumberName":"V-component_of_CURRENTS"},"data":[0,0,0,0,0,0,0,0,0,0,0,0,0,0,0,0,0,0,0,0,0,0,0,0,0,0,0,0,0,0,0,0,0,0,0,0,0,0,0,0,0,0,0,0,0,0,0,0,0,0,0,0,0,0,0,0,0,0,0.0362,0.0363,0,0.0384,0.0385,0.0385,0.0387,0.0387,0.0387,0.0387,0.0399,0.0399,0.04,0,0,0,0,0,0,0,0,0,0,0,0,0,0.0311,0.0312,0.0362,0.0363,0.0363,0.0384,0.0385,0.0385,0.0387,0.0387,0.0387,0.0387,0.0399,0.0399,0.04,0,0,0,0,0,0,0,0,0,0,0,0,0,0.0333,0.0312,0.0362,0.0367,0.0368,0.0384,0.0385,0.0385,0.0387,0.0387,0.0387,0.0387,0.0398,0.0399,0.04,0.0409,0,0,0.0402,0.0402,0,0,0,0,0,0,0,0,0.0332,0.0335,0.0366,0.0367,0.0368,0.0383,0.0371,0.0393,0.0387,0.0379,0.0387,0.0387,0.0393,0.0394,0.0398,0.041,0.0411,0.0402,0.0402,0.0403,0.0403,0,0,0,0,0,0,0,0.033,0.0334,0.0371,0.0366,0.0367,0.0364,0.0367,0.0375,0.0387,0.038,0.038,0.0384,0.0393,0.0398,0.0399,0.0411,0.0402,0.0403,0.0403,0.0403,0.0444,0.0444,0,0,0,0,0,0,0.033,0.0332,0.037,0.0371,0.0349,0.0366,0.0369,0.0378,0.0387,0.0388,0.0384,0.0384,0.0397,0.0398,0.0399,0.0425,0.0403,0.0403,0.0404,0.0443,0.0444,0.0445,0,0,0,0,0,0,0.0328,0.0333,0.0369,0.0352,0.0357,0.0367,0.0377,0.0379,0.0385,0.039,0.0391,0.0389,0.0396,0.0398,0.0415,0.0425,0.0404,0.0404,0.0442,0.0443,0.0444,0.0468,0,0,0,0,0,0,0.0327,0.0332,0.0338,0.0352,0.0358,0.0381,0.0378,0.0379,0.0388,0.0388,0.0395,0.0396,0.0396,0.0414,0.0416,0.0426,0.0405,0.0442,0.0443,0.0444,0.0466,0.047,0.0472,0,0,0,0,0,0.0325,0.0331,0.0338,0.0343,0.0366,0.0382,0.0384,0.039,0.0388,0.0394,0.0403,0.0395,0.0423,0.0416,0.0418,0.0427,0.0441,0.0442,0.0444,0.0465,0.0469,0.0472,0,0,0,0,0,0,0.0304,0.0332,0.0341,0.0353,0.0369,0.0382,0.0386,0.0392,0.0404,0.0404,0.0407,0.0409,0.0427,0.0425,0.0417,0.0443,0.0429,0.0431,0.0445,0.0449,0.0452,0.0461,0.0406,0,0,0,0,0,0.0305,0.0323,0.0344,0.0354,0.0362,0.0376,0.0382,0.039,0.0402,0.0407,0.0414,0.0422,0.0435,0.044,0.0449,0.0464,0.0456,0.0471,0.0474,0.0476,0.0485,0.0489,0.0493,0.0449,0.0449,0.0449,0,0,0.0298,0.0318,0.0326,0.0352,0.0363,0.0381,0.0379,0.0392,0.0408,0.0406,0.0427,0.0435,0.0442,0.0461,0.0468,0.046,0.0481,0.0478,0.048,0.0488,0.0491,0.0495,0.0499,0.045,0.045,0.045,0,0,0.0299,0.0312,0.033,0.0345,0.0369,0.0382,0.0388,0.0407,0.0415,0.044,0.0443,0.046,0.0475,0.0486,0.0492,0.0517,0.0499,0.0515,0.0537,0.054,0.0544,0.0547,0.0526,0.0527,0.0515,0.0515,0.0515,0,0.0286,0.0321,0.0335,0.0355,0.0371,0.0384,0.0406,0.0416,0.044,0.0458,0.0449,0.0488,0.0489,0.0519,0.0527,0.0525,0.0515,0.0521,0.0544,0.0547,0.055,0.0527,0.0528,0.0516,0.0516,0.0516,0.0516,0,0.0306,0.0331,0.034,0.0378,0.0393,0.0414,0.0434,0.0452,0.0466,0.0484,0.0517,0.0522,0.055,0.0545,0.0545,0.0569,0.055,0.0548,0.0534,0.0556,0.053,0.0531,0.0518,0.0517,0.0517,0.0517,0,0,0.0285,0.0345,0.0349,0.0379,0.0411,0.0431,0.0455,0.0495,0.0526,0.0537,0.0574,0.0589,0.0599,0.0607,0.0604,0.06,0.0602,0.0583,0.0583,0.056,0.0592,0.0577,0.0575,0.0603,0.0604,0.0604,0.0559,0,0.0301,0.0356,0.0376,0.0424,0.0457,0.0475,0.0502,0.0535,0.0563,0.0598,0.0603,0.0637,0.062,0.0637,0.0633,0.0626,0.0608,0.0613,0.0576,0.0575,0.0558,0.0578,0.0587,0.0549,0.056,0.056,0.056,0,0.0318,0.0361,0.0416,0.0476,0.0489,0.0514,0.0574,0.0598,0.0641,0.0663,0.0693,0.0701,0.0718,0.0688,0.0676,0.0681,0.0639,0.0612,0.0609,0.0592,0.0562,0.0533,0.0549,0.056,0.056,0.056,0.056,0,0.0326,0.0386,0.0441,0.0459,0.0522,0.0547,0.0577,0.0625,0.0662,0.0708,0.0751,0.0759,0.0784,0.0741,0.0699,0.0691,0.0663,0.0646,0.058,0.0577,0.0578,0.0574,0.0614,0.0614,0.0614,0.0614,0.0614,0,0.0345,0.0384,0.0452,0.0482,0.0542,0.057,0.0632,0.0662,0.0716,0.0779,0.0791,0.0842,0.0801,0.0787,0.0717,0.0661,0.068,0.059,0.0574,0.0584,0.0582,0.059,0.0588,0.0612,0.0612,0.0613,0.0613,0,0.0344,0.0389,0.0455,0.0529,0.0551,0.0592,0.0662,0.0709,0.0763,0.0845,0.0865,0.0913,0.0906,0.0838,0.077,0.0705,0.0632,0.0591,0.0594,0.058,0.0531,0.0531,0.0525,0.0524,0.0523,0.0523,0.0522,0,0.0354,0.0393,0.0482,0.0518,0.0552,0.0615,0.0661,0.0723,0.0783,0.0896,0.0941,0.0966,0.0991,0.0887,0.0774,0.0645,0.0619,0.0554,0.0545,0.0541,0.0526,0.0527,0.0527,0.0541,0.0541,0.0541,0.0541,0,0.0375,0.0405,0.0459,0.0535,0.0592,0.0661,0.0735,0.0794,0.0884,0.0964,0.1064,0.1089,0.1019,0.0917,0.0747,0.0658,0.0581,0.0546,0.0559,0.0566,0.0555,0.054,0.0541,0.0539,0.0539,0.0539,0.0539,0.0539,0.0386,0.042,0.0489,0.0557,0.0623,0.0711,0.0776,0.087,0.0977,0.1097,0.1114,0.1136,0.1041,0.0824,0.07,0.0564,0.0575,0.0507,0.0509,0.0511,0.0524,0.0514,0.0491,0.0491,0.0491,0.0491,0.049,0,0.0408,0.0446,0.0505,0.0596,0.0663,0.0704,0.0829,0.0896,0.1032,0.1106,0.1169,0.1036,0.0943,0.0812,0.0624,0.0517,0.0511,0.0464,0.0485,0.0488,0.049,0.0504,0.0464,0.0463,0.0463,0.0462,0,0,0.0422,0.0475,0.0504,0.0615,0.0679,0.0783,0.0861,0.0965,0.1035,0.1094,0.109,0.1091,0.0958,0.0804,0.0677,0.057,0.0547,0.0541,0.0576,0.062,0.0623,0.0531,0.0557,0,0,0,0,0]}],[{"header":{"parameterUnit":"m.s-1","parameterCategory":2,"la1":30.2991,"la2":30.254,"lo1":-89.0895,"lo2":-89.0444,"dy":0.0017,"dx":0.0017,"nx":28,"ny":28,"refTime":"2024-03-13T09:00:00:Z","depth":"4","parameterNumber":2,"parameterNumberName":"U-component_of_CURRENTS"},"data":[0,0,0,0,0,0,0,0,0,0,0,0,0,0,0,0,0,0,0,0,0,0,0,0,0,0,0,0,0,0,0,0,0,0,0,0,0,0,0,0,0,0,0,0,0,0,0,0,0,0,0,0,0,0,0,0,0,0,0.0845,0.0845,0,0.0888,0.0888,0.0889,0.0921,0.0921,0.0922,0.0922,0.0921,0.0921,0.092,0,0,0,0,0,0,0,0,0,0,0,0,0,0.0809,0.0809,0.0844,0.0845,0.0846,0.0888,0.0888,0.0889,0.0921,0.0922,0.0922,0.0922,0.0921,0.0921,0.092,0,0,0,0,0,0,0,0,0,0,0,0,0,0.0835,0.0809,0.0844,0.0867,0.087,0.0888,0.0888,0.0889,0.0921,0.0922,0.0922,0.0923,0.0921,0.0921,0.092,0.0907,0,0,0.0919,0.0918,0,0,0,0,0,0,0,0,0.0833,0.0836,0.0863,0.0866,0.0869,0.09,0.0875,0.0893,0.0921,0.0901,0.0922,0.0923,0.091,0.091,0.0917,0.0907,0.0906,0.0918,0.0918,0.0918,0.0918,0,0,0,0,0,0,0,0.0831,0.0834,0.0861,0.0864,0.0867,0.0882,0.0886,0.0879,0.0901,0.0903,0.0905,0.0911,0.0911,0.0918,0.0917,0.0906,0.0918,0.0918,0.0918,0.0917,0.0953,0.0955,0,0,0,0,0,0,0.0825,0.0832,0.086,0.0862,0.0852,0.0882,0.0886,0.0889,0.0902,0.0905,0.091,0.0912,0.0918,0.0918,0.0917,0.095,0.0918,0.0917,0.0917,0.0952,0.0954,0.0955,0,0,0,0,0,0,0.0824,0.0827,0.0858,0.0849,0.0854,0.0882,0.0885,0.089,0.0914,0.0908,0.091,0.0931,0.0919,0.0918,0.0936,0.0948,0.0917,0.0917,0.0951,0.0953,0.0954,0.0983,0,0,0,0,0,0,0.0823,0.0826,0.0836,0.0848,0.0854,0.0878,0.0884,0.089,0.0915,0.0919,0.0926,0.0926,0.0919,0.0937,0.0936,0.0947,0.0916,0.0949,0.0952,0.0954,0.0981,0.0986,0.099,0,0,0,0,0,0.0822,0.083,0.0836,0.084,0.0863,0.0878,0.0883,0.0904,0.0916,0.0928,0.0943,0.0927,0.0951,0.0938,0.0936,0.0947,0.0948,0.0951,0.0954,0.0979,0.0985,0.099,0,0,0,0,0,0,0.0821,0.0834,0.0842,0.0854,0.087,0.0884,0.0899,0.0913,0.0935,0.0943,0.094,0.094,0.0964,0.0954,0.0939,0.0967,0.0948,0.0951,0.0968,0.0974,0.0978,0.0988,0.0916,0,0,0,0,0,0.0824,0.0833,0.0847,0.0859,0.0867,0.0886,0.09,0.0913,0.0929,0.0941,0.0948,0.0959,0.0971,0.0972,0.098,0.0987,0.0989,0.0996,0.1001,0.1005,0.1013,0.1044,0.1052,0.0964,0.0964,0.0964,0,0,0.0826,0.0836,0.0842,0.086,0.0874,0.0884,0.0896,0.0918,0.0934,0.0935,0.0963,0.0978,0.098,0.0998,0.1007,0.0991,0.1028,0.1008,0.1012,0.1018,0.1048,0.1056,0.1063,0.0966,0.0966,0.0966,0,0,0.0826,0.0844,0.0849,0.0861,0.0884,0.0896,0.0906,0.093,0.095,0.0976,0.0988,0.1017,0.1023,0.1036,0.104,0.1076,0.1059,0.1074,0.1096,0.1125,0.1133,0.1139,0.1138,0.1144,0.1069,0.1069,0.1069,0,0.0831,0.0838,0.0855,0.0861,0.0875,0.0902,0.0912,0.0933,0.0963,0.0984,0.099,0.1039,0.1044,0.1072,0.1091,0.1086,0.1091,0.107,0.1131,0.1138,0.1144,0.1141,0.1148,0.1071,0.1071,0.107,0.107,0,0.0828,0.084,0.0846,0.0862,0.0879,0.0896,0.0921,0.0947,0.0977,0.1003,0.1052,0.1073,0.1104,0.111,0.1111,0.1156,0.114,0.1138,0.1113,0.1154,0.1149,0.1155,0.1073,0.1073,0.1072,0.1072,0,0,0.0824,0.084,0.0845,0.0851,0.0885,0.0895,0.0926,0.0964,0.0992,0.1034,0.1073,0.1117,0.1146,0.1154,0.1164,0.1189,0.1235,0.1185,0.1185,0.1177,0.1281,0.116,0.1155,0.1244,0.1246,0.1247,0.1254,0,0.0822,0.0824,0.0842,0.0858,0.0864,0.0899,0.0922,0.0962,0.1008,0.1052,0.1097,0.1143,0.1155,0.118,0.1211,0.1238,0.1256,0.1232,0.1248,0.1248,0.1131,0.116,0.1253,0.1259,0.126,0.1261,0.1262,0,0.0813,0.0819,0.0827,0.0852,0.086,0.088,0.0932,0.0958,0.1025,0.1062,0.1124,0.1165,0.1226,0.1226,0.1292,0.1277,0.1287,0.1297,0.1297,0.118,0.1139,0.1214,0.1273,0.1272,0.1271,0.127,0.127,0,0.0791,0.0811,0.0818,0.0826,0.0856,0.088,0.0909,0.0969,0.0998,0.1084,0.1119,0.1195,0.1243,0.1279,0.1315,0.1313,0.1365,0.1361,0.1254,0.1245,0.1339,0.1332,0.14,0.14,0.14,0.14,0.14,0,0.0773,0.0779,0.081,0.0813,0.0829,0.0866,0.0904,0.0943,0.1007,0.1042,0.1131,0.1166,0.1265,0.1306,0.1322,0.1299,0.1373,0.1261,0.1244,0.1348,0.1342,0.1342,0.1335,0.1401,0.1401,0.14,0.14,0,0.0733,0.0753,0.0761,0.08,0.0815,0.0829,0.0885,0.0905,0.0983,0.1031,0.1062,0.1168,0.1223,0.1279,0.1339,0.1297,0.1292,0.1261,0.1354,0.1341,0.1149,0.1144,0.1145,0.1141,0.1138,0.1135,0.1132,0,0.0698,0.0704,0.0744,0.0743,0.0763,0.0794,0.0806,0.0882,0.0905,0.1013,0.1021,0.1118,0.1175,0.1162,0.1226,0.1228,0.1215,0.119,0.1186,0.1142,0.1126,0.1126,0.1126,0.1127,0.1126,0.1125,0.1124,0,0.0644,0.0676,0.0683,0.0685,0.0698,0.07,0.0735,0.0749,0.0834,0.0919,0.0966,0.1003,0.1053,0.1101,0.1108,0.1108,0.1197,0.1154,0.1161,0.1158,0.112,0.1107,0.1111,0.1112,0.1114,0.1115,0.1116,0,0.0607,0.0601,0.0621,0.0614,0.0619,0.0599,0.0631,0.066,0.0698,0.0832,0.0845,0.0945,0.1046,0.1037,0.104,0.1032,0.102,0.0978,0.0994,0.1008,0.0958,0.089,0.0798,0,0,0,0,0,0.0569,0.0559,0.0544,0.0529,0.0527,0.0537,0.057,0.0608,0.0711,0.0714,0.078,0.0823,0.0858,0.0909,0.0874,0.0957,0.1007,0.0907,0.0963,0.1045,0.1059,0.1012,0,0,0,0,0,0,0.0547,0.0538,0.0525,0.0456,0.0439,0.0427,0.0452,0.0516,0.0526,0.0645,0.0677,0.0757,0.0811,0.0883,0.0862,0.087,0.0879,0.0966,0.0963,0.1037,0.105,0.1061,0.1018,0,0,0,0,0]},{"header":{"parameterUnit":"m.s-1","parameterCategory":2,"la1":30.2991,"la2":30.254,"lo1":-89.0895,"lo2":-89.0444,"dy":0.0017,"dx":0.0017,"nx":28,"ny":28,"refTime":"2024-03-13T09:00:00:Z","depth":"4","parameterNumber":3,"parameterNumberName":"V-component_of_CURRENTS"},"data":[0,0,0,0,0,0,0,0,0,0,0,0,0,0,0,0,0,0,0,0,0,0,0,0,0,0,0,0,0,0,0,0,0,0,0,0,0,0,0,0,0,0,0,0,0,0,0,0,0,0,0,0,0,0,0,0,0,0,0.0264,0.0264,0,0.0287,0.0287,0.0287,0.0295,0.0295,0.0295,0.0295,0.0311,0.0311,0.0312,0,0,0,0,0,0,0,0,0,0,0,0,0,0.0224,0.0224,0.0264,0.0265,0.0265,0.0287,0.0287,0.0287,0.0295,0.0295,0.0295,0.0295,0.0311,0.0311,0.0312,0,0,0,0,0,0,0,0,0,0,0,0,0,0.0243,0.0225,0.0264,0.0272,0.0273,0.0286,0.0287,0.0287,0.0295,0.0295,0.0295,0.0295,0.0311,0.0311,0.0312,0.0317,0,0,0.0314,0.0314,0,0,0,0,0,0,0,0,0.0242,0.0244,0.027,0.0271,0.0272,0.0288,0.0278,0.0297,0.0295,0.0286,0.0295,0.0295,0.0303,0.0304,0.0308,0.0318,0.0319,0.0314,0.0314,0.0315,0.0315,0,0,0,0,0,0,0,0.024,0.0243,0.0273,0.0271,0.0272,0.0272,0.0275,0.0282,0.0294,0.0287,0.0288,0.0291,0.0303,0.0308,0.0309,0.0319,0.0314,0.0315,0.0315,0.0315,0.035,0.035,0,0,0,0,0,0,0.0239,0.0242,0.0272,0.0273,0.0257,0.0273,0.0276,0.0283,0.0295,0.0296,0.0291,0.0291,0.0306,0.0308,0.0309,0.033,0.0315,0.0315,0.0316,0.0349,0.035,0.035,0,0,0,0,0,0,0.0238,0.0241,0.0271,0.0258,0.0262,0.0274,0.0282,0.0284,0.0293,0.0298,0.0299,0.0299,0.0306,0.0308,0.0326,0.033,0.0316,0.0316,0.0349,0.0349,0.035,0.0364,0,0,0,0,0,0,0.0237,0.0241,0.0247,0.0258,0.0263,0.0282,0.0282,0.0284,0.0295,0.0295,0.0305,0.0306,0.0307,0.0325,0.0326,0.0331,0.0317,0.0348,0.0349,0.035,0.0363,0.0365,0.0367,0,0,0,0,0,0.0235,0.0237,0.0247,0.025,0.027,0.0282,0.0285,0.0292,0.0295,0.03,0.0312,0.0306,0.0332,0.0326,0.0328,0.0333,0.0347,0.0349,0.035,0.0362,0.0364,0.0367,0,0,0,0,0,0,0.0216,0.0238,0.0249,0.0257,0.0272,0.0284,0.0287,0.0296,0.0309,0.0311,0.0316,0.0318,0.0335,0.0334,0.0327,0.0346,0.0337,0.0339,0.0346,0.0348,0.035,0.0336,0.0317,0,0,0,0,0,0.0217,0.0229,0.0248,0.0256,0.0263,0.0278,0.0285,0.0293,0.0306,0.0311,0.0321,0.033,0.0341,0.0344,0.0354,0.0364,0.035,0.0368,0.037,0.0372,0.0362,0.0354,0.0354,0.0354,0.0354,0.0354,0,0,0.021,0.0226,0.0231,0.0254,0.0265,0.0274,0.0282,0.0293,0.0303,0.0311,0.0327,0.0341,0.0347,0.0361,0.0368,0.036,0.0365,0.0373,0.0375,0.0364,0.0355,0.0355,0.0355,0.0355,0.0355,0.0355,0,0,0.0199,0.0218,0.0224,0.0238,0.026,0.0272,0.0278,0.0298,0.0308,0.0329,0.0337,0.0354,0.0371,0.0375,0.0379,0.0397,0.038,0.0402,0.0397,0.039,0.0389,0.0389,0.0369,0.0367,0.0399,0.0399,0.0399,0,0.0187,0.0207,0.0226,0.0236,0.0249,0.0271,0.0281,0.0292,0.0317,0.0329,0.0335,0.0366,0.0374,0.0385,0.0392,0.04,0.0389,0.0387,0.0391,0.0391,0.039,0.037,0.0367,0.04,0.04,0.0399,0.0399,0,0.0185,0.0202,0.0206,0.0231,0.0243,0.0258,0.0278,0.0295,0.0314,0.033,0.0355,0.037,0.0387,0.0394,0.0398,0.0401,0.0392,0.0398,0.0382,0.039,0.0369,0.0366,0.0401,0.04,0.04,0.04,0,0,0.0155,0.0197,0.0199,0.0223,0.0248,0.0264,0.0274,0.03,0.0319,0.0337,0.0357,0.0375,0.0388,0.0392,0.0402,0.0394,0.0383,0.0392,0.0391,0.0366,0.0356,0.0353,0.0349,0.039,0.039,0.039,0.0342,0,0.0152,0.018,0.0196,0.0225,0.0247,0.0269,0.0282,0.0305,0.0329,0.0354,0.0363,0.0391,0.0385,0.0405,0.0391,0.0396,0.0375,0.0394,0.0356,0.0354,0.0346,0.0345,0.0388,0.034,0.0339,0.0339,0.0338,0,0.015,0.0176,0.0205,0.0252,0.0261,0.0276,0.0317,0.0334,0.0359,0.0377,0.0388,0.0402,0.0402,0.04,0.0373,0.0387,0.0364,0.0355,0.0353,0.034,0.0345,0.0331,0.0332,0.0332,0.0333,0.0333,0.0334,0,0.0152,0.0186,0.0219,0.0233,0.0277,0.0293,0.0317,0.0346,0.0378,0.0398,0.0424,0.0413,0.0433,0.0393,0.0373,0.0375,0.0337,0.034,0.0305,0.0304,0.0314,0.0315,0.0302,0.0302,0.0302,0.0302,0.0302,0,0.0161,0.0188,0.0227,0.0251,0.0292,0.0312,0.0361,0.0376,0.0412,0.0455,0.0444,0.0468,0.0436,0.0416,0.0371,0.0328,0.0332,0.0295,0.0292,0.0322,0.0324,0.0311,0.0313,0.0301,0.0301,0.0301,0.0302,0,0.0171,0.0193,0.024,0.0285,0.0301,0.0337,0.0401,0.0439,0.0461,0.0512,0.0523,0.0522,0.0494,0.0443,0.0391,0.0346,0.0294,0.0273,0.0298,0.0299,0.026,0.0263,0.0224,0.0223,0.0223,0.0223,0.0222,0,0.0184,0.0207,0.0268,0.03,0.0326,0.0381,0.0423,0.0463,0.0505,0.0547,0.057,0.0561,0.0548,0.0458,0.04,0.0298,0.0286,0.0247,0.0253,0.0251,0.0252,0.0256,0.026,0.0222,0.0221,0.0221,0.0221,0,0.0207,0.0228,0.0267,0.033,0.0381,0.0442,0.0499,0.0531,0.0579,0.0601,0.0611,0.0572,0.0539,0.0463,0.0388,0.0315,0.0267,0.0242,0.0242,0.0248,0.0248,0.025,0.0254,0.022,0.022,0.022,0.022,0,0.0225,0.0253,0.0301,0.036,0.0422,0.0479,0.0513,0.0559,0.0597,0.0631,0.0634,0.0592,0.0575,0.0473,0.0402,0.0331,0.0312,0.028,0.0278,0.0278,0.0311,0.032,0.0304,0,0,0,0,0,0.0244,0.0274,0.0326,0.0389,0.0452,0.0483,0.0553,0.0582,0.0624,0.0633,0.0633,0.0596,0.0506,0.0469,0.0397,0.0388,0.0296,0.03,0.0256,0.0212,0.0213,0.0242,0,0,0,0,0,0,0.0255,0.0302,0.0326,0.0402,0.0443,0.0511,0.0553,0.0582,0.0585,0.0611,0.0563,0.056,0.047,0.0538,0.0386,0.0369,0.0328,0.0265,0.0263,0.0211,0.0212,0.0214,0.0243,0,0,0,0,0]}]]